• In United Kingdom
  • List of Countries
  • For 7 days
  • Water Temperature
  • Satellite Maps
  • Weather Map
  • Weather Widgets
  • user-avatar
    Login

    Hourly Weather Mayrhofen

    Today, 23 July, Sunday

    Time Temperature Precipitation Wind Pressure Humidity
    00:00 +12°C° 1.4 mm 1 mps 619 mmHg 95%
    01:00 +11°C° 1.4 mm 1 mps 619 mmHg 95%
    02:00 +11°C° 0.8 mm 1 mps 619 mmHg 95%
    03:00 +11°C° 0.8 mm 1 mps 619 mmHg 95%
    04:00 +11°C° 0.8 mm 1 mps 619 mmHg 95%
    05:00 +12°C° 0.1 mm 1 mps 620 mmHg 92%
    06:00 +12°C° 0.1 mm 0 mps 620 mmHg 89%
    07:00 +13°C° 0.1 mm 0 mps 621 mmHg 86%
    08:00 +15°C° 0.2 mm 1 mps 621 mmHg 79%
    09:00 +16°C° 0.2 mm 1 mps 622 mmHg 73%
    10:00 +18°C° 0.2 mm 1 mps 622 mmHg 66%
    11:00 +18°C° 0.3 mm 1 mps 622 mmHg 68%
    12:00 +18°C° 0.3 mm 1 mps 622 mmHg 70%
    13:00 +18°C° 0.3 mm 1 mps 622 mmHg 71%
    14:00 +18°C° 1 mm 1 mps 621 mmHg 76%
    15:00 +16°C° 1 mm 2 mps 621 mmHg 81%
    16:00 +15°C° 1 mm 2 mps 621 mmHg 86%
    17:00 +15°C° 0.9 mm 2 mps 620 mmHg 89%
    18:00 +14°C° 0.9 mm 1 mps 620 mmHg 92%
    19:00 +13°C° 0.9 mm 1 mps 620 mmHg 95%
    20:00 +13°C° 0.6 mm 1 mps 620 mmHg 96%
    21:00 +12°C° 0.6 mm 1 mps 619 mmHg 96%
    22:00 +12°C° 0.6 mm 1 mps 619 mmHg 97%
    23:00 +12°C° 0.4 mm 1 mps 619 mmHg 97%

    Tomorrow, 24 July, Monday

    Time Temperature Precipitation Wind Pressure Humidity
    00:00 +11°C° 0.4 mm 1 mps 618 mmHg 97%
    01:00 +11°C° 0.4 mm 1 mps 618 mmHg 97%
    02:00 +10°C° 1 mm 0 mps 617 mmHg 97%
    03:00 +10°C° 1 mm 0 mps 617 mmHg 97%
    04:00 +9°C° 1 mm 0 mps 616 mmHg 97%
    05:00 +10°C° 0.8 mm 0 mps 616 mmHg 96%
    06:00 +10°C° 0.8 mm 0 mps 616 mmHg 95%
    07:00 +11°C° 0.8 mm 0 mps 616 mmHg 93%
    08:00 +13°C° 1.1 mm 1 mps 616 mmHg 91%
    09:00 +13°C° 1.1 mm 1 mps 616 mmHg 88%
    10:00 +13°C° 1.1 mm 1 mps 615 mmHg 85%
    11:00 +13°C° 1.8 mm 1 mps 615 mmHg 86%
    12:00 +13°C° 1.8 mm 1 mps 615 mmHg 88%
    13:00 +12°C° 1.8 mm 2 mps 614 mmHg 90%
    14:00 +10°C° 3.7 mm 2 mps 614 mmHg 92%
    15:00 +9°C° 3.7 mm 2 mps 614 mmHg 94%
    16:00 +8°C° 3.7 mm 2 mps 613 mmHg 97%
    17:00 +8°C° 1.5 mm 2 mps 614 mmHg 96%
    18:00 +7°C° 1.5 mm 2 mps 614 mmHg 96%
    19:00 +7°C° 1.5 mm 3 mps 614 mmHg 96%
    20:00 +6°C° 0.2 mm 2 mps 614 mmHg 95%
    21:00 +6°C° 0.2 mm 2 mps 614 mmHg 95%
    22:00 +5°C° 0.2 mm 2 mps 613 mmHg 94%
    23:00 +5°C° 0 mm 2 mps 613 mmHg 94%

    Day after tomorrow, 25 July, Tuesday

    Time Temperature Precipitation Wind Pressure Humidity
    00:00 +4°C° 0 mm 2 mps 613 mmHg 94%
    01:00 +3°C° 0 mm 2 mps 612 mmHg 94%
    02:00 +3°C° 0 mm 2 mps 612 mmHg 94%
    03:00 +2°C° 0 mm 2 mps 612 mmHg 94%
    04:00 +2°C° 0 mm 2 mps 611 mmHg 93%
    05:00 +3°C° 0 mm 2 mps 612 mmHg 90%
    06:00 +4°C° 0 mm 2 mps 612 mmHg 87%
    07:00 +5°C° 0 mm 2 mps 612 mmHg 84%
    08:00 +7°C° 0 mm 2 mps 613 mmHg 75%
    09:00 +9°C° 0 mm 2 mps 613 mmHg 66%
    10:00 +12°C° 0 mm 2 mps 614 mmHg 57%
    11:00 +13°C° 0.1 mm 2 mps 614 mmHg 57%
    12:00 +13°C° 0.1 mm 2 mps 614 mmHg 56%
    13:00 +13°C° 0.1 mm 2 mps 614 mmHg 56%
    14:00 +13°C° 0.6 mm 2 mps 614 mmHg 60%
    15:00 +13°C° 0.6 mm 2 mps 613 mmHg 64%
    16:00 +12°C° 0.6 mm 2 mps 613 mmHg 69%
    17:00 +10°C° 1.1 mm 2 mps 613 mmHg 76%
    18:00 +9°C° 1.1 mm 2 mps 613 mmHg 83%
    19:00 +8°C° 1.1 mm 2 mps 612 mmHg 90%
    20:00 +7°C° 0.7 mm 2 mps 612 mmHg 92%
    21:00 +6°C° 0.7 mm 2 mps 612 mmHg 94%
    22:00 +6°C° 0.7 mm 1 mps 612 mmHg 96%
    23:00 +6°C° 0.4 mm 1 mps 612 mmHg 96%

    26 July, Wednesday

    Time Temperature Precipitation Wind Pressure Humidity
    00:00 +6°C° 0.4 mm 1 mps 612 mmHg 96%
    01:00 +6°C° 0.4 mm 1 mps 612 mmHg 96%
    02:00 +5°C° 0.2 mm 1 mps 612 mmHg 96%
    03:00 +5°C° 0.2 mm 1 mps 612 mmHg 96%
    04:00 +4°C° 0.2 mm 2 mps 612 mmHg 96%
    05:00 +5°C° 0.2 mm 2 mps 612 mmHg 95%
    06:00 +5°C° 0.2 mm 2 mps 612 mmHg 94%
    07:00 +5°C° 0.2 mm 2 mps 612 mmHg 93%
    08:00 +7°C° 0 mm 2 mps 613 mmHg 86%
    09:00 +8°C° 0 mm 2 mps 614 mmHg 79%
    10:00 +10°C° 0 mm 2 mps 614 mmHg 71%
    11:00 +10°C° 0.1 mm 2 mps 615 mmHg 70%
    12:00 +12°C° 0.1 mm 2 mps 615 mmHg 68%
    13:00 +11°C° 0.1 mm 3 mps 615 mmHg 67%
    14:00 +11°C° 0.3 mm 3 mps 615 mmHg 69%
    15:00 +11°C° 0.3 mm 3 mps 615 mmHg 70%
    16:00 +11°C° 0.3 mm 3 mps 615 mmHg 72%
    17:00 +10°C° 0.7 mm 2 mps 615 mmHg 78%
    18:00 +9°C° 0.7 mm 2 mps 615 mmHg 84%
    19:00 +8°C° 0.7 mm 2 mps 615 mmHg 90%
    20:00 +7°C° 0.8 mm 2 mps 616 mmHg 91%
    21:00 +7°C° 0.8 mm 2 mps 616 mmHg 93%
    22:00 +6°C° 0.8 mm 2 mps 616 mmHg 95%
    23:00 +6°C° 0.7 mm 2 mps 616 mmHg 95%

    27 July, Thursday

    Time Temperature Precipitation Wind Pressure Humidity
    00:00 +6°C° 0.7 mm 2 mps 616 mmHg 95%
    01:00 +6°C° 0.7 mm 2 mps 616 mmHg 95%
    02:00 +6°C° 0.1 mm 2 mps 616 mmHg 95%
    03:00 +5°C° 0.1 mm 2 mps 616 mmHg 95%
    04:00 +5°C° 0.1 mm 2 mps 616 mmHg 95%
    05:00 +6°C° 0 mm 2 mps 617 mmHg 93%
    06:00 +7°C° 0 mm 2 mps 617 mmHg 91%
    07:00 +8°C° 0 mm 2 mps 618 mmHg 89%
    08:00 +10°C° 0 mm 2 mps 619 mmHg 80%
    09:00 +13°C° 0 mm 2 mps 619 mmHg 71%
    10:00 +15°C° 0 mm 2 mps 620 mmHg 62%
    11:00 +16°C° 0 mm 2 mps 620 mmHg 60%
    12:00 +16°C° 0 mm 2 mps 620 mmHg 58%
    13:00 +17°C° 0 mm 2 mps 620 mmHg 56%
    14:00 +17°C° 0 mm 2 mps 620 mmHg 57%
    15:00 +17°C° 0 mm 2 mps 620 mmHg 58%
    16:00 +17°C° 0 mm 2 mps 620 mmHg 59%
    17:00 +16°C° 0 mm 2 mps 620 mmHg 65%
    18:00 +15°C° 0 mm 2 mps 620 mmHg 72%
    19:00 +14°C° 0 mm 1 mps 619 mmHg 78%
    20:00 +12°C° 0 mm 1 mps 619 mmHg 83%
    21:00 +10°C° 0 mm 1 mps 619 mmHg 88%
    22:00 +8°C° 0 mm 1 mps 618 mmHg 94%
    23:00 +8°C° 0 mm 1 mps 618 mmHg 93%

    28 July, Friday

    Time Temperature Precipitation Wind Pressure Humidity
    00:00 +8°C° 0 mm 1 mps 618 mmHg 93%
    01:00 +8°C° 0 mm 1 mps 618 mmHg 93%
    02:00 +8°C° 0 mm 1 mps 618 mmHg 93%
    03:00 +8°C° 0 mm 1 mps 618 mmHg 92%
    04:00 +7°C° 0 mm 1 mps 618 mmHg 92%
    05:00 +9°C° 0 mm 1 mps 619 mmHg 86%
    06:00 +11°C° 0 mm 1 mps 620 mmHg 81%
    07:00 +13°C° 0 mm 1 mps 621 mmHg 75%
    08:00 +15°C° 0 mm 1 mps 621 mmHg 66%
    09:00 +18°C° 0 mm 1 mps 622 mmHg 56%
    10:00 +21°C° 0 mm 1 mps 623 mmHg 47%
    11:00 +21°C° 0 mm 1 mps 623 mmHg 45%
    12:00 +22°C° 0 mm 1 mps 623 mmHg 43%
    13:00 +23°C° 0 mm 2 mps 623 mmHg 41%
    14:00 +21°C° 0 mm 2 mps 623 mmHg 45%
    15:00 +21°C° 0 mm 2 mps 623 mmHg 48%
    16:00 +21°C° 0 mm 2 mps 623 mmHg 52%
    17:00 +19°C° 0.3 mm 2 mps 622 mmHg 61%
    18:00 +18°C° 0.3 mm 2 mps 622 mmHg 71%
    19:00 +16°C° 0.3 mm 1 mps 622 mmHg 81%
    20:00 +15°C° 0.3 mm 1 mps 622 mmHg 85%
    21:00 +13°C° 0.3 mm 1 mps 621 mmHg 90%
    22:00 +11°C° 0.3 mm 1 mps 621 mmHg 95%
    23:00 +11°C° 0.1 mm 1 mps 621 mmHg 95%
    Show more